Location: Innsbruck
(47.2657°N, 11.3914°E)
Time: 01:38:22
(UTC+02:00)

Nauka - Pass Details

Date: 27 September 2021
Orbit: 417 x 423 km, 51.6° (Epoch: 19 October)

Event Time Altitude Azimuth Distance (km) Brightness Sun altitude
Rises 20:10:02 0° 286° (WNW) 2,364 ? -12.4°
Reaches altitude 10° 20:12:14 10° 295° (WNW) 1,501 ? -12.7°
Maximum altitude 20:15:25 38° 5° (N) 655 ? -13.2°
Enters shadow 20:17:19 20° 64° (ENE) 1,040 ? -13.6°
